Список аэропортов
Фактическая погода:

21 августа, 07:00
Температура: +24°C (+24.0*)
Ветер: северный 6 м/с
Давление: *759 мм
неб. облачность
2700 м
Время (МСК)Темп. СВетерВлажностьДавлениеОблачностьОсадки
03:00+24СВ, 7 м/с55%1013 гПамалооблачно
04:00+24СВ, 7 м/с54%1013 гПаясно
05:00+23СВ, 7 м/с53%1013 гПаясно
06:00+23СВ, 6 м/с53%1013 гПаясно
07:00+23СВ, 6 м/с53%1014 гПаясно
08:00+23СВ, 6 м/с52%1014 гПаясно
09:00+24СВ, 6 м/с49%1014 гПаясно
10:00+25СВ, 5 м/с47%1013 гПаясно
11:00+26СВ, 5 м/с43%1013 гПаясно
12:00+28СВ, 4 м/с39%1013 гПаясно
13:00+29СВ, 4 м/с37%1012 гПаясно
14:00+30С, 3 м/с35%1012 гПаясно
15:00+31С, 2 м/с34%1011 гПаясно
16:00+31СВ, 1 м/с34%1011 гПамалооблачно
17:00+31В, 1 м/с35%1011 гПамалооблачно
18:00+29ЮВ, 3 м/с45%1011 гПас прояснениямисл. дождь
19:00+27В, 2 м/с60%1011 гПаоблачнодождь
20:00+26СВ, 3 м/с56%1012 гПаоблачнодождь
21:00+25СВ, 6 м/с42%1012 гПаоблачносл. дождь
22:00+24СВ, 6 м/с38%1013 гПаоблачно
23:00+23СВ, 7 м/с38%1014 гПаоблачно
22 августа
00:00+22СВ, 7 м/с40%1014 гПаясно
01:00+22СВ, 6 м/с41%1014 гПаясно
02:00+21СВ, 6 м/с41%1014 гПаясно
03:00+21СВ, 6 м/с41%1014 гПаясно
04:00+21СВ, 6 м/с41%1014 гПаясно
05:00+20СВ, 6 м/с41%1014 гПаясно
06:00+20СВ, 6 м/с42%1014 гПаясно
07:00+20СВ, 6 м/с44%1015 гПаясно
08:00+20СВ, 6 м/с43%1015 гПаясно
09:00+20СВ, 6 м/с41%1015 гПаясно
10:00+22СВ, 6 м/с37%1015 гПаясно
11:00+23СВ, 5 м/с38%1015 гПаясно
12:00+25СВ, 3 м/с35%1014 гПаясно
13:00+26СВ, 2 м/с32%1014 гПаясно
14:00+27С, 1 м/с29%1013 гПаясно
15:00+28Ю, 1 м/с30%1013 гПамалооблачно
16:00+28Ю, 3 м/с30%1013 гПаясно
17:00+27Ю, 5 м/с36%1012 гПаясно
18:00+26Ю, 5 м/с39%1013 гПаясно
19:00+26Ю, 4 м/с36%1013 гПамалооблачно
20:00+25Ю, 2 м/с46%1013 гПамалооблачно
21:00+23В, 1 м/с59%1014 гПас прояснениями
22:00+23СВ, 4 м/с43%1014 гПас прояснениями
23:00+23СВ, 6 м/с35%1015 гПаоблачно
23 августа
00:00+22СВ, 6 м/с35%1016 гПас прояснениями
01:00+22СВ, 6 м/с35%1016 гПамалооблачно
02:00+21СВ, 6 м/с35%1016 гПаясно
03:00+21СВ, 5 м/с36%1016 гПаясно